CAPE
189 347 401 1061 668 96 78 113 42 9 17 57 48 37 160 324 162 279 145 105 129 210 272 352 664 635 442 179 159 234 137 212 709 739 316 702 1665 1543 1377 1974 2037 2111 1999 1820 1774 1496 1449 1517 1519
262 490 1003 1460 182 32 47 63 88 121 10 4 166 155 218 285 228 159 131 96 105 229 314 339 428 789 295 37 136 224 166 209 699 679 577 1551 1518 1667 1798 1683 1696 1536 1592 1411 1153 1303 1398 1386 1365
248 733 1402 557 75 25 26 84 126 32 0 30 216 289 378 387 133 131 124 92 87 193 423 417 696 751 295 141 112 117 209 250 310 633 1438 1894 2036 1820 1648 1771 1689 1724 1464 1299 1314 1502 1723 1682 1594
603 634 1072 126 59 55 82 55 87 48 87 46 250 422 228 172 170 266 137 133 243 279 425 798 1123 738 514 111 105 179 378 93 272 514 1114 1402 1282 1917 1798 1598 1658 1588 1064 1464 1517 1503 1622 1696 1448
348 634 336 150 35 25 40 21 15 10 0 61 50 150 76 243 215 188 161 192 478 476 595 671 1279 1105 801 175 152 442 261 145 139 845 1045 1275 1758 1640 2064 1495 1021 1125 1472 1452 1454 1763 1908 1647 1438
659 866 136 70 28 7 27 8 2 0 0 32 0 0 297 287 177 194 286 358 396 509 513 437 1294 1272 914 275 516 628 933 1068 1163 1167 1447 1692 1765 1821 1837 1222 874 1048 1177 1283 1376 1621 1951 1576 1357
448 517 178 61 23 0 0 0 2 0 0 0 0 0 97 76 89 167 250 280 311 464 256 238 604 932 1322 1134 1257 1422 1230 1248 1243 1462 1931 1573 1779 1836 1436 1189 1251 1384 1436 1349 1255 1356 1246 1689 1497
456 400 327 132 127 21 0 0 0 0 0 0 0 0 0 6 15 84 140 153 307 311 132 36 347 506 731 835 1145 1069 1077 1537 1737 1723 1639 1557 1696 1339 1069 830 1520 1517 1308 1119 1191 1107 1093 1140 1385
22 520 262 343 231 31 0 0 0 0 0 0 0 0 0 0 1 6 18 35 86 129 65 86 325 787 1037 1124 1104 887 1488 1878 1538 1409 1230 1294 878 829 1259 1044 1547 1306 1077 1013 992 938 875 969 1183
50 360 190 389 262 0 73 0 0 0 0 0 0 0 0 0 0 1 0 13 101 170 86 255 340 768 852 693 925 1023 1016 1036 1411 1459 1531 1042 1177 1246 920 926 1173 795 467 444 360 524 888 1206 1085
160 205 54 219 106 118 39 0 0 0 0 0 0 0 0 0 0 0 0 0 39 106 37 271 355 571 329 698 828 854 920 1070 1478 1739 1565 1232 1089 872 866 914 857 957 527 864 1149 1458 1482 1540 1393
524 92 41 144 48 322 45 42 0 0 0 0 0 0 0 0 0 0 0 0 18 49 59 213 274 310 373 530 613 784 861 886 753 1137 1567 1080 889 956 747 871 952 869 902 1315 1492 1429 1810 1798 1627
345 183 151 125 302 479 490 149 78 0 0 0 0 0 0 0 0 0 0 0 0 21 87 214 276 362 476 631 560 705 643 751 786 912 1050 658 789 669 555 779 757 955 1050 1148 1432 1568 1822 1693 1260
136 281 365 457 413 390 514 678 613 37 0 0 0 0 0 1 9 0 0 0 0 0 55 137 346 387 596 368 854 837 750 746 611 369 555 966 901 880 610 680 842 882 1214 1293 1540 1938 1585 1441 1204
182 382 208 93 412 101 183 326 412 226 0 0 0 0 0 1 0 0 0 0 0 0 13 83 186 298 401 426 818 708 690 450 188 119 772 1045 1134 1200 1146 884 707 1013 1408 1736 1534 1573 1221 1387 1101
21 103 67 89 123 138 325 452 33 91 5 0 0 0 0 0 0 0 0 0 0 0 0 53 38 75 236 308 486 329 210 120 72 148 502 1005 1179 1342 1311 845 607 1425 1243 949 1002 1168 1504 1330 1148
0 0 5 40 62 83 467 429 113 57 22 3 0 0 0 0 0 0 0 0 0 0 0 24 39 28 89 312 266 298 194 207 145 239 537 966 893 919 1313 745 999 1565 959 820 1036 1479 1718 1335 1343
0 1 0 0 0 0 0 0 122 62 73 53 0 0 0 0 0 0 0 0 0 0 0 11 44 11 96 135 268 293 390 505 404 278 509 815 679 860 1152 885 1290 1339 711 817 1420 2534 1744 1613 1542
0 0 0 0 0 0 0 0 0 56 64 97 60 0 0 0 0 0 0 0 2 0 0 0 143 222 237 194 261 395 560 640 528 414 507 879 656 643 1080 813 906 1022 818 1294 1608 1885 1683 1282 1330
0 0 0 0 0 0 0 0 0 30 111 129 110 41 5 0 0 0 0 0 0 6 23 23 157 534 636 400 448 432 484 557 608 542 655 917 738 671 923 847 560 652 606 1413 1796 2118 1515 1258 1484
0 0 0 0 0 0 0 0 31 265 290 189 140 118 79 15 0 0 0 0 0 0 108 97 318 495 721 362 459 515 450 640 681 688 736 817 748 659 976 1112 767 1222 1335 733 1716 1827 2145 1164 1320
0 0 0 0 0 0 0 0 0 86 323 333 238 160 153 123 24 0 0 0 0 0 5 150 297 500 749 668 431 479 371 347 396 527 511 503 694 561 772 1256 1557 1508 663 918 1425 1543 2038 1600 560
0 0 0 0 0 0 0 0 0 0 0 52 93 154 120 97 89 25 0 0 0 0 11 106 360 468 507 757 587 636 710 404 366 393 441 755 752 695 869 1182 1436 1525 1707 1588 2143 1947 2680 1587 1087
0 0 0 0 0 0 0 0 0 4 0 5 0 44 85 76 77 63 22 0 0 0 0 51 394 707 611 677 870 706 730 814 444 428 421 579 409 524 803 988 1251 1361 1444 1899 2097 2266 2282 1698 1683
0 0 0 0 0 0 0 0 0 1 0 0 0 0 0 0 24 27 70 33 0 0 0 40 335 805 744 649 789 816 983 1090 1097 832 456 361 185 164 415 989 1098 1037 1649 2003 2269 2461 1905 1485 1213
0 0 0 0 0 0 0 0 0 0 0 0 0 0 0 0 3 43 17 56 30 26 46 48 227 727 795 646 770 1031 1083 992 1017 1223 444 340 209 171 314 1013 915 930 1133 1783 2243 2251 1962 1726 2069
0 0 0 0 0 0 0 0 0 0 0 0 0 0 0 0 0 18 206 112 43 60 154 147 246 608 808 652 845 1161 1280 1070 658 949 1203 658 507 156 280 586 788 769 975 1451 1743 2051 1640 2018 1913
0 0 0 0 0 0 0 0 0 0 0 0 0 0 0 0 0 0 33 713 504 36 141 234 292 485 779 639 772 983 1151 1234 1044 1008 1065 1095 571 1230 1178 1635 1256 968 984 1203 1526 1215 1444 2047 1731
0 0 0 0 0 0 0 0 0 0 0 0 0 0 0 0 0 0 0 202 980 133 73 309 397 442 715 822 734 953 1047 1119 1122 812 1198 1450 1126 1289 2071 1952 2001 1820 1576 1308 1816 1780 1026 1078 1669
0 0 0 0 0 0 0 0 0 0 0 0 0 0 0 0 0 0 0 105 847 276 107 241 418 487 729 920 1053 1003 974 917 868 936 989 1212 1311 1399 1762 2076 2187 2039 2011 2061 2217 2095 1382 1576 1811
CIN
-256 -190 -195 -108 -16 -5 -1 -11 -2 -6 -4 -27 -36 -23 -7 -14 -22 -16 -65 -44 -29 -7 -14 -2 -4 -5 -4 -9 -9 -9 -21 -18 -4 -4 -16 -6 -0 -1 -0 -0 -0 -0 -0 -0 -0 -1 -1 -1 -0
-173 -170 -104 -58 -7 -3 -1 -2 -15 -4 -4 -20 -34 -31 -15 -20 -64 -84 -77 -73 -38 -2 -6 -1 -13 -2 -6 -20 -7 -6 -12 -10 -4 -5 -9 -1 -1 -0 -0 -1 -1 -1 -1 -3 -5 -6 -2 -4 -1
-225 -147 -46 -9 -2 -2 -2 -42 -5 -22 -0 -16 -13 -5 -5 -8 -45 -40 -62 -65 -34 -7 -1 -5 -4 -3 -16 -10 -10 -10 -7 -7 -10 -4 -0 -0 -0 -0 -2 -1 -3 -1 -3 -6 -7 -3 -0 -1 -1
-139 -143 -54 -9 -0 -3 -23 -3 -12 -16 -26 -11 -2 -2 -40 -39 -25 -22 -59 -39 -5 -1 -0 -4 -0 -3 -11 -21 -19 -13 -6 -21 -12 -7 -2 -0 -8 -0 -0 -4 -5 -5 -13 -10 -4 -5 -2 -1 -4
-163 -104 -4 -6 -2 -8 -10 -9 -1 -1 -0 -26 -16 -6 -46 -18 -24 -34 -43 -24 -1 -1 -0 -1 -0 -0 -7 -20 -21 -9 -15 -22 -28 -2 -2 -2 -0 -0 -0 -15 -29 -22 -11 -20 -13 -6 -2 -6 -4
-48 -53 -2 -1 -7 -21 -20 -4 -4 -0 -0 -9 -0 -0 -4 -3 -16 -15 -11 -3 -0 -1 -0 -2 -1 -0 -11 -13 -11 -14 -8 -5 -3 -1 -1 -0 -0 -0 -0 -22 -37 -28 -32 -27 -22 -16 -5 -12 -12
-41 -2 -13 -1 -8 -0 -0 -0 -2 -0 -0 -0 -0 -0 -28 -24 -19 -11 -10 -7 -5 -1 -8 -17 -2 -4 -0 -8 -5 -4 -8 -5 -2 -3 -0 -1 -0 -0 -13 -23 -20 -24 -24 -33 -31 -27 -34 -18 -21
-48 -28 -9 -9 -5 -6 -0 -0 -0 -0 -0 -0 -0 -0 -0 -1 -7 -27 -26 -27 -10 -7 -15 -33 -14 -1 -1 -0 -8 -13 -8 -3 -1 -1 -2 -2 -5 -11 -19 -37 -15 -20 -43 -43 -43 -46 -55 -57 -40
-102 -1 -12 -6 -2 -31 -0 -0 -0 -0 -0 -0 -0 -0 -0 -0 -1 -2 -27 -60 -52 -31 -32 -20 -9 -1 -0 -0 -3 -20 -4 -0 -6 -8 -9 -11 -0 -1 -1 -26 -20 -49 -54 -57 -58 -70 -100 -94 -74
-47 -0 -23 -39 -32 -0 -63 -0 -0 -0 -0 -0 -0 -0 -0 -0 -0 -1 -0 -45 -37 -21 -25 -3 -2 -0 -0 -1 -0 -1 -1 -1 -1 -2 -1 -0 -0 -1 -2 -33 -56 -66 -85 -107 -154 -141 -90 -54 -13
-40 -6 -66 -61 -52 -38 -40 -0 -0 -0 -1 -0 -0 -0 -0 -0 -0 -0 -0 -0 -19 -18 -32 -5 -2 -1 -1 -2 -0 -0 -1 -0 -0 -0 -0 -0 -0 -2 -0 -4 -3 -3 -48 -1 -6 -1 -2 -1 -13
-1 -49 -60 -57 -63 -4 -21 -104 -0 -0 -0 -0 -0 -0 -0 -0 -0 -0 -0 -0 -30 -40 -21 -10 -6 -4 -1 -1 -0 -0 -1 -0 -0 -1 -0 -0 -1 -7 -3 -1 -8 -8 -5 -12 -1 -1 -1 -0 -3
-3 -19 -39 -60 -48 -17 -39 -60 -58 -0 -0 -0 -0 -0 -0 -0 -0 -0 -0 -0 -0 -31 -21 -4 -12 -7 -1 -0 -0 -0 -1 -0 -1 -2 -1 -8 -0 -6 -8 -17 -1 -7 -9 -1 -0 -0 -4 -2 -16
-23 -23 -36 -46 -56 -57 -42 -25 -24 -34 -0 -0 -0 -0 -0 -0 -49 -0 -0 -0 -0 -0 -46 -13 -3 -4 -0 -2 -0 -0 -0 -0 -5 -23 -10 -9 -2 -8 -10 -18 -2 -5 -2 -1 -2 -11 -8 -12 -16
-71 -8 -62 -140 -59 -129 -63 -13 -7 -34 -0 -0 -0 -0 -0 -0 -0 -0 -0 -0 -0 -0 -28 -37 -13 -5 -4 -8 -1 -0 -1 -2 -35 -73 -20 -7 -2 -8 -2 -1 -4 -1 -5 -6 -3 -5 -8 -8 -15
-46 -28 -67 -118 -106 -49 -21 -1 -120 -64 -25 -0 -0 -0 -0 -0 -0 -0 -0 -0 -0 -0 -0 -46 -76 -41 -11 -9 -5 -5 -12 -41 -75 -42 -12 -9 -4 -5 -14 -1 -2 -1 -2 -3 -5 -3 -2 -11 -21
-0 -4 -74 -50 -135 -127 -13 -8 -37 -102 -103 -11 -0 -0 -0 -0 -0 -0 -0 -0 -0 -0 -0 -84 -73 -81 -30 -5 -11 -16 -40 -35 -35 -20 -1 -2 -6 -8 -3 -1 -0 -6 -1 -3 -2 -0 -1 -17 -18
-0 -0 -0 -0 -0 -0 -0 -0 -48 -118 -91 -90 -0 -0 -0 -0 -0 -0 -0 -0 -0 -0 -0 -101 -74 -82 -28 -8 -8 -5 -3 -2 -6 -22 -1 -3 -6 -15 -18 -1 -2 -3 -0 -1 -1 -5 -2 -5 -7
-0 -0 -0 -0 -0 -0 -0 -0 -0 -127 -113 -86 -128 -0 -0 -0 -0 -0 -0 -0 -1 -0 -0 -0 -29 -26 -20 -21 -2 -1 -1 -1 -3 -6 -8 -6 -16 -20 -20 -1 -3 -1 -2 -5 -9 -1 -3 -11 -28
-0 -0 -0 -0 -0 -0 -0 -0 -0 -54 -106 -77 -79 -174 -208 -0 -0 -0 -0 -0 -0 -32 -107 -109 -34 -4 -10 -10 -2 -1 -1 -2 -0 -4 -6 -7 -22 -27 -10 -4 -3 -3 -8 -8 -8 -8 -1 -4 -14
-0 -0 -0 -0 -0 -0 -0 -0 -19 -35 -49 -77 -70 -91 -136 -115 -0 -0 -0 -0 -0 -0 -85 -93 -35 -14 -6 -13 -5 -2 -0 -0 -1 -2 -6 -14 -20 -30 -17 -2 -4 -0 -6 -4 -5 -3 -7 -5 -3
-0 -0 -0 -0 -0 -0 -0 -0 -0 -11 -30 -50 -75 -87 -105 -146 -172 -0 -0 -0 -0 -0 -16 -83 -63 -33 -9 -9 -7 -7 -7 -5 -16 -16 -14 -29 -26 -30 -8 -0 -0 -1 -3 -1 -1 -1 -5 -14 -27
-0 -0 -0 -0 -0 -0 -0 -0 -0 -0 -0 -16 -35 -66 -82 -114 -130 -106 -0 -0 -0 -0 -172 -102 -65 -48 -25 -9 -8 -6 -5 -2 -2 -4 -15 -4 -19 -25 -6 -1 -0 -1 -1 -0 -2 -2 -5 -1 -2
-0 -0 -0 -0 -0 -0 -0 -0 -0 -2 -0 -3 -1 -35 -81 -102 -136 -156 -120 -0 -0 -0 -0 -140 -80 -54 -51 -32 -22 -12 -3 -2 -2 -11 -14 -15 -34 -39 -22 -4 -3 -4 -2 -0 -1 -3 -8 -8 -3
-0 -0 -0 -0 -0 -0 -0 -0 -0 -1 -0 -0 -0 -0 -0 -0 -82 -105 -155 -171 -18 -0 -0 -168 -114 -85 -65 -64 -32 -26 -7 -3 -1 -2 -18 -20 -51 -63 -44 -19 -10 -7 -8 -1 -0 -2 -5 -7 -6
-0 -0 -0 -0 -0 -0 -0 -0 -0 -0 -0 -0 -0 -0 -0 -0 -196 -96 -108 -176 -187 -170 -151 -178 -138 -104 -91 -93 -71 -33 -22 -5 -4 -2 -9 -28 -35 -55 -41 -22 -20 -23 -7 -2 -0 -2 -1 -0 -2
-0 -0 -0 -0 -0 -0 -0 -0 -0 -0 -0 -0 -0 -0 -0 -0 -0 -189 -163 -154 -205 -220 -168 -147 -130 -118 -100 -98 -73 -46 -33 -30 -37 -4 -3 -5 -13 -37 -37 -31 -26 -22 -13 -8 -1 -3 -1 -1 -0
-0 -0 -0 -0 -0 -0 -0 -0 -0 -0 -0 -0 -0 -0 -0 -0 -0 -0 -211 -129 -110 -253 -225 -157 -138 -125 -98 -110 -95 -71 -54 -43 -35 -19 -7 -1 -10 -3 -1 -2 -12 -16 -15 -12 -5 -0 -1 -0 -1
-0 -0 -0 -0 -0 -0 -0 -0 -0 -0 -0 -0 -0 -0 -0 -0 -0 -0 -0 -225 -101 -174 -237 -209 -174 -144 -119 -104 -114 -77 -77 -60 -53 -52 -13 -4 -1 -1 -1 -1 -5 -3 -7 -10 -1 -0 -2 -2 -1
-0 -0 -0 -0 -0 -0 -0 -0 -0 -0 -0 -0 -0 -0 -0 -0 -0 -0 -12 -277 -127 -151 -215 -213 -168 -157 -116 -108 -90 -111 -78 -73 -63 -57 -31 -8 -6 -1 -3 -2 -3 -3 -1 -1 -0 -0 -0 -1 -2
Wind_Speed
21 19 17 16 21 20 22 22 25 28 25 18 24 16 13 9 11 14 30 25 29 26 21 21 14 10 9 8 6 6 22 13 5 21 13 9 11 10 15 14 14 12 10 8 9 8 7 7 3
20 17 17 16 18 23 20 25 23 19 21 29 19 19 15 13 7 24 24 31 31 27 23 20 16 11 11 5 1 3 16 7 5 9 3 8 12 14 16 16 12 7 6 9 9 5 4 1 21
18 16 17 18 21 19 22 19 22 25 26 24 17 13 14 14 21 23 23 33 30 26 22 16 18 15 9 1 6 10 14 7 4 15 7 9 16 13 13 11 8 7 8 10 6 1 3 13 8
17 16 18 22 29 19 22 22 21 23 20 19 19 14 14 15 21 24 33 30 26 22 20 19 17 16 14 2 4 7 5 9 5 3 4 18 16 12 10 8 8 9 12 3 3 9 8 9 8
16 16 22 25 28 26 27 20 16 16 17 19 17 16 20 16 14 23 32 29 27 24 14 16 17 18 19 13 16 9 10 4 6 6 16 13 14 11 8 8 10 11 10 9 11 8 10 14 12
17 16 23 25 28 26 23 20 15 18 18 18 20 25 18 23 32 30 30 29 27 25 21 15 19 23 20 19 17 20 22 26 24 23 18 14 12 10 8 10 11 13 13 12 11 9 11 16 13
16 19 23 26 26 24 22 16 18 20 20 18 22 22 21 28 32 31 31 29 22 23 22 21 22 25 20 19 18 20 20 24 25 20 14 12 10 7 9 11 13 15 16 14 13 12 9 13 15
17 18 23 22 23 24 22 22 22 21 12 18 25 20 28 32 32 31 31 29 27 26 24 21 20 23 24 25 19 20 19 18 17 16 15 14 10 9 15 19 14 17 16 14 13 11 11 14 16
17 19 21 23 23 23 23 23 18 20 25 14 15 19 25 29 32 32 31 29 28 27 26 25 23 22 19 20 17 20 19 18 19 18 16 19 14 15 16 10 17 17 14 14 12 11 11 15 19
17 20 19 20 22 23 22 22 21 23 23 21 14 8 24 27 30 30 30 29 28 28 27 27 23 22 23 21 22 20 20 21 16 15 15 15 13 13 12 17 19 16 16 15 13 12 14 14 14
14 18 21 22 24 22 21 21 17 23 16 18 24 26 26 25 28 29 29 28 28 28 27 27 24 22 24 19 23 22 22 20 18 15 16 15 17 19 18 18 19 17 16 13 12 10 8 9 11
17 13 20 21 21 21 21 19 20 18 8 21 26 27 27 26 26 26 26 28 28 28 27 28 25 23 21 21 25 24 22 22 21 17 17 18 21 20 19 17 19 18 15 15 12 10 9 8 11
13 17 12 21 22 19 20 19 16 19 11 23 25 27 27 27 25 25 26 27 28 29 28 28 26 24 23 24 24 24 23 23 20 20 18 19 19 19 20 18 19 18 17 15 14 12 11 11 11
11 9 21 20 20 15 17 16 17 18 20 22 23 25 25 25 25 24 25 26 28 29 29 29 28 25 24 26 25 25 23 21 22 21 19 20 19 20 20 20 20 20 17 15 14 13 13 13 13
14 16 17 18 18 13 13 16 16 17 19 20 22 22 23 23 25 25 25 25 27 29 30 29 29 27 27 27 27 26 23 23 22 22 21 21 21 21 20 21 21 20 18 17 16 15 14 14 14
14 14 15 15 18 14 16 14 18 19 18 20 21 20 21 22 23 25 25 25 25 27 30 29 30 29 30 27 27 26 24 24 24 23 23 23 23 22 23 22 22 19 20 18 17 16 15 14 15
14 13 13 13 13 15 16 13 18 19 18 18 19 20 20 20 22 24 25 25 24 26 28 31 31 31 31 29 28 27 24 26 25 25 25 24 25 24 24 23 21 21 20 19 18 17 16 16 15
16 14 14 15 14 16 18 19 13 18 18 17 17 18 19 18 21 22 25 25 26 27 26 30 31 31 30 29 28 27 26 27 27 27 27 25 27 26 26 23 21 22 21 21 19 18 17 18 16
17 20 17 18 15 18 17 19 15 9 17 17 16 16 17 18 18 20 23 25 26 28 29 32 30 31 31 31 30 29 29 28 28 29 28 29 28 29 27 25 23 23 23 21 21 20 20 19 18
20 21 22 20 18 21 21 21 15 6 9 14 17 16 15 14 16 17 19 23 27 27 29 30 33 33 33 32 31 29 29 28 29 30 30 31 30 30 30 25 23 22 23 24 22 21 21 21 18
19 24 22 23 26 27 25 26 14 12 7 5 11 16 16 16 14 14 16 23 23 28 29 31 32 33 34 32 30 29 27 28 30 30 32 33 32 31 30 28 26 20 25 25 24 23 22 23 21
24 19 25 26 26 23 19 21 17 14 12 8 3 6 17 15 17 11 12 20 26 24 27 30 30 26 34 35 30 31 31 31 29 28 30 31 33 31 30 28 27 23 24 22 23 23 23 22 24
21 24 26 27 27 29 27 25 24 20 20 17 14 10 6 3 15 16 9 12 19 25 24 23 28 33 30 32 35 29 32 29 25 25 19 29 11 31 29 29 29 26 25 18 23 22 21 21 23
24 26 26 26 26 25 27 32 27 21 20 14 15 13 17 20 5 9 9 10 11 25 22 20 20 24 16 13 25 31 27 31 25 21 14 13 11 6 5 8 12 12 13 13 18 20 20 22 23
22 24 25 23 21 26 25 20 25 18 13 15 15 15 18 21 19 12 8 11 12 19 18 18 14 20 17 14 12 19 28 27 26 21 21 14 11 8 7 7 6 5 5 13 16 17 20 20 22
23 23 25 26 27 23 18 23 22 14 11 15 16 18 20 21 23 23 18 10 13 16 18 18 15 15 16 17 14 14 20 26 26 22 22 18 16 13 13 7 7 6 5 8 14 18 21 19 20
18 21 21 27 28 30 28 21 20 15 16 20 21 22 24 24 25 25 26 31 12 16 21 21 18 18 17 16 15 15 18 22 23 25 20 22 20 16 12 9 7 8 8 9 12 15 20 24 23
22 21 23 20 27 29 23 24 27 15 23 25 25 27 27 28 29 30 30 32 33 15 17 20 20 20 21 19 18 17 16 18 23 23 23 25 22 21 16 10 10 9 8 8 9 10 11 17 24
19 22 23 27 27 31 31 24 15 19 25 29 30 32 33 34 34 34 34 35 35 18 16 20 20 21 22 22 20 19 18 18 19 19 20 20 22 19 17 13 12 10 9 8 8 8 9 9 17
22 24 23 28 26 28 33 35 19 19 26 31 35 36 36 36 37 36 36 36 34 27 19 17 20 21 23 23 24 21 20 20 19 20 21 21 22 21 19 16 15 14 11 10 8 8 8 8 12
Wind_Direction
120 124 134 138 122 122 116 119 121 121 132 157 147 169 177 190 194 192 155 167 153 158 171 169 180 180 180 194 215 216 98 83 164 167 173 169 164 161 154 153 152 150 151 150 152 154 156 157 171
119 131 133 136 122 113 121 118 126 141 141 131 153 159 171 179 198 162 170 149 144 155 163 174 181 186 176 199 265 60 80 100 173 172 163 171 165 161 156 153 153 157 161 160 160 160 355 290 123
136 142 137 128 109 119 123 136 129 126 128 145 162 182 182 184 164 169 110 143 151 159 167 183 177 181 187 222 40 73 78 86 136 68 176 172 162 161 160 162 164 166 162 160 165 298 338 9 356
152 146 132 116 96 119 123 130 135 133 147 159 159 171 181 185 169 171 137 157 166 172 173 174 179 180 179 177 108 83 93 69 83 95 159 163 163 168 170 173 173 168 159 172 173 154 159 157 152
164 148 114 104 100 106 102 132 158 158 161 157 172 166 159 185 190 96 134 162 165 170 193 184 182 174 167 179 174 173 170 139 162 166 169 171 173 179 184 186 176 170 168 162 150 152 150 142 142
156 153 114 103 98 108 114 130 146 149 158 161 157 144 169 164 138 121 128 160 164 166 174 191 176 157 169 174 173 167 160 149 164 162 169 178 184 188 196 186 179 170 164 158 152 149 142 138 140
168 140 122 107 101 110 116 135 134 131 145 161 159 157 170 155 146 133 141 160 182 177 178 176 170 152 175 177 177 173 170 160 158 167 179 187 194 204 198 185 177 167 161 157 153 149 148 144 140
166 150 123 121 113 108 120 112 115 122 177 167 143 171 150 141 149 148 146 155 164 166 171 181 183 174 173 171 184 179 181 181 180 182 183 186 195 199 174 159 175 164 163 163 161 161 154 147 141
179 151 130 117 117 113 122 111 125 118 104 181 198 181 114 122 144 151 152 157 161 163 162 166 182 184 194 190 199 189 189 189 185 185 189 178 194 184 176 197 168 168 174 171 170 169 164 156 140
177 150 144 130 115 113 121 122 117 115 111 129 197 43 107 122 140 143 148 146 152 157 157 161 185 194 189 196 194 200 198 192 203 206 205 199 204 203 199 176 172 181 176 172 176 174 166 163 158
190 155 129 112 108 126 124 119 143 114 152 139 130 112 118 121 137 154 164 160 160 158 173 172 190 200 193 207 198 200 198 204 209 216 211 211 196 184 183 180 180 185 185 191 190 189 187 176 169
154 204 134 128 132 118 115 134 121 146 216 120 113 118 121 128 137 144 147 160 173 177 177 176 195 204 209 207 195 200 204 206 207 219 217 203 188 186 186 191 188 191 194 188 195 200 195 190 172
168 164 40 126 148 137 117 119 143 137 161 89 107 119 129 137 139 145 153 158 179 186 187 180 197 207 208 205 204 202 207 207 216 215 220 207 202 197 191 194 195 197 197 197 195 200 199 188 183
300 254 142 185 116 172 113 123 141 109 96 99 109 126 131 136 142 143 148 154 167 188 191 188 192 208 211 204 204 202 209 218 215 218 218 213 210 202 199 193 194 194 203 211 209 204 200 193 192
345 28 71 156 146 96 140 118 129 101 109 113 122 125 135 140 148 152 152 152 160 173 192 194 197 207 208 202 204 205 214 214 218 219 218 215 211 204 206 199 195 198 211 212 214 209 215 203 197
326 293 10 42 120 96 155 68 113 108 116 125 129 127 132 141 145 152 154 158 154 166 195 201 200 206 202 212 207 211 219 216 218 217 217 215 214 212 206 203 203 212 212 213 210 217 215 212 204
333 353 353 6 78 214 221 280 105 119 126 130 135 136 137 139 145 150 154 160 155 159 164 189 196 198 201 210 213 216 226 219 219 218 217 219 215 215 212 212 218 219 218 217 219 221 221 217 215
314 326 321 307 322 279 268 236 79 144 141 135 138 140 143 141 148 148 158 161 162 158 157 179 185 195 204 212 216 221 226 222 221 217 214 219 213 215 216 221 228 227 226 221 227 225 231 221 228
312 300 310 298 323 296 301 301 317 90 150 145 143 141 147 148 144 150 155 160 163 167 170 181 174 202 207 207 211 216 219 221 220 218 218 209 206 205 220 226 233 235 230 233 229 230 227 230 242
302 302 297 296 299 299 300 299 324 11 107 140 154 151 146 145 148 150 154 160 169 168 172 177 193 189 199 208 213 218 221 223 220 217 211 204 199 194 199 233 241 243 239 234 237 238 235 237 259
303 293 302 292 286 281 288 286 314 324 358 62 143 163 161 158 153 155 157 167 164 173 176 181 183 185 198 210 222 223 227 224 221 219 214 204 199 192 192 210 239 256 243 240 246 247 252 249 261
292 305 287 291 291 291 292 290 306 310 315 325 11 147 172 166 168 165 167 170 176 173 174 180 179 171 193 207 226 224 224 225 230 230 226 221 198 189 190 195 204 255 253 260 259 263 264 273 268
298 297 292 289 287 284 282 285 285 301 294 303 304 304 305 187 175 177 185 181 179 179 177 174 178 186 179 233 225 235 228 235 241 241 249 232 258 186 184 190 213 244 251 274 269 276 283 290 288
299 294 292 290 287 286 281 273 281 288 291 307 324 316 298 285 276 190 200 199 203 187 182 179 176 178 179 242 244 239 243 237 245 250 254 258 258 238 216 268 280 285 287 288 285 285 291 289 292
305 297 293 291 285 287 286 281 277 297 308 309 318 326 316 301 294 292 219 208 213 192 194 189 196 184 184 189 220 246 246 247 249 254 255 259 258 253 242 238 254 257 282 294 294 296 292 294 293
303 299 292 289 287 290 300 288 285 285 309 314 316 320 320 313 307 296 292 253 227 216 203 201 214 216 199 193 204 235 248 250 252 256 257 260 264 266 268 250 221 218 261 294 298 295 293 295 295
310 298 308 293 289 286 285 288 290 288 294 299 302 306 310 312 309 304 297 279 247 223 208 204 227 234 220 212 223 232 244 250 253 255 255 260 262 268 268 261 250 253 267 279 293 296 293 289 293
299 307 296 294 289 286 291 287 282 271 291 296 297 301 303 305 306 302 298 295 276 231 227 218 219 232 237 229 228 232 234 245 251 254 255 257 260 262 270 263 264 262 256 252 272 284 291 295 292
302 295 291 292 288 286 286 294 303 294 298 297 295 296 299 298 300 302 298 299 286 269 222 218 219 223 232 235 230 235 234 241 246 246 251 255 259 262 265 266 267 267 268 258 254 267 280 285 298
297 296 292 285 288 285 284 281 304 303 302 302 297 297 296 296 296 296 300 297 292 278 262 232 230 231 234 239 240 234 240 242 244 247 248 253 257 258 260 265 268 271 272 273 262 267 280 277 292